Hourly Data Report for October 27, 2014

All times are specified in Local Standard Time (LST). Add 1 hour to adjust for Daylight Saving Time where and when it is observed.

QIKIQTARJUAQ A
NUNAVUT

67°32'48.000" N
64°01'54.000" W
5.50 m
2400577
YVM

Download Data

Hourly Data (October 2014)
Hourly Data Report for October 27, 2014
Temp Definition
°C
Dew Point Temp Definition
°C
Rel Hum Definition
%
Wind Dir Definition
10's deg

Wind Spd Definition
km/h
Visibility Definition
km
Stn Press Definition
kPa
Hmdx Definition


Wind Chill Definition


Weather Definition


TIME
00:00 Legend Double Dagger -7.7 -13.2 65 19 21 16.1 102.11   -15 LegendNANA
01:00 Legend Double Dagger -7.8 -13.3 65 19 22 16.1 102.11   -15 LegendNANA
02:00 Legend Double Dagger -8.0 -13.5 65 19 18 16.1 102.14   -15 LegendNANA
03:00 Legend Double Dagger -8.1 -13.4 66 19 21 16.1 102.15   -16 LegendNANA
04:00 Legend Double Dagger -8.2 -13.5 66 19 22 16.1 102.17   -16 LegendNANA
05:00 Legend Double Dagger -8.2 -13.5 66 19 24 16.1 102.16   -16 LegendNANA
06:00 Legend Double Dagger -8.5 -13.4 68 19 21 16.1 102.17   -16 LegendNANA
07:00 Legend Double Dagger -8.3 -13.6 66 16 11 16.1 102.20   -14 LegendNANA
08:00 Legend Double Dagger -9.3 -14.0 69 17 9 16.1 102.21   -14 LegendNANA
09:00 Legend Double Dagger -9.9 -14.0 72 17 9 16.1 102.20   -15 LegendNANA
10:00 Legend Double Dagger -8.4 -13.1 69 17 11 16.1 102.17   -14 LegendNANA
11:00 Legend Double Dagger -7.5 -12.6 67 17 5 16.1 102.16   -10 LegendNANA
12:00 Legend Double Dagger -8.5 -12.8 71 15 4 16.1 102.15   -11 LegendNANA
13:00 Legend Double Dagger -7.6 -12.1 71 12 5 16.1 102.13   -10 LegendNANA
14:00 Legend Double Dagger -8.4 -12.6 72 16 4 16.1 102.13   -11 LegendNANA
15:00 Legend Double Dagger -9.0 -12.6 75 13 4 16.1 102.14   -11 LegendNANA
16:00 Legend Double Dagger -8.3 -11.8 76 14 4 16.1 102.13   -10 LegendNANA
17:00 Legend Double Dagger -7.7 -11.7 73 15 5 16.1 102.11   -10 LegendNANA
18:00 Legend Double Dagger -7.7 -11.5 74 18 8 16.1 102.06   -12 LegendNANA
19:00 Legend Double Dagger -7.6 -11.4 74 18 8 16.1 102.04   -12 LegendNANA
20:00 Legend Double Dagger -6.4 -11.3 69 19 9 16.1 102.00   -11 LegendNANA
21:00 Legend Double Dagger -6.4 -11.0 70 19 9 16.1 101.95   -11 LegendNANA
22:00 Legend Double Dagger -5.8 -11.3 65 18 13 16.1 101.90   -11 LegendNANA
23:00 Legend Double Dagger -6.5 -10.7 72 LegendMM 4 16.1 101.86   -8 LegendNANA

Notes on Data Quality.

Legend

  • E = Estimated
  • M = Missing
  • NA = Not Available
  • ‡ = Partner data that is not subject to review by the National Climate Archives
Date modified: